Weather History for KBYY - December, 2013

Change the Weather History Date:

Tuesday, December 10, 2013

  Actual Average (KLBX) Record (KLBX)
Temperature  
Mean Temperature 42 °F -  
Max Temperature 50 °F 62 °F 79 °F (2007)
Min Temperature 34 °F 45 °F 33 °F (2008)
Degree Days  
Heating Degree Days 23    
Moisture  
Dew Point 33 °F    
Average Humidity 70    
Maximum Humidity 95    
Minimum Humidity 48    
Precipitation  
Precipitation 0.00 in - - ()
Sea Level Pressure  
Sea Level Pressure 30.37 in    
Wind  
Wind Speed 13 mph (NNW)    
Max Wind Speed 21 mph    
Max Gust Speed 30 mph    
Visibility 10 miles    
Events      
Averages and records for this station are not official NWS values.
T = Trace of Precipitation, MM = Missing Value Source: NWS Daily Summary

Daily Weather History Graph

Daily Weather History Graph

Search for Another Location

Airport or City:

Trip Planner

Search our weather history database for the weather conditions in past years. The results will help you decide how hot, cold, wet, or windy it might be!

Date:

Astronomy

Dec. 10, 2013 Rise Set
Actual Time 7:06 AM CST 5:26 PM CST
Civil Twilight 6:40 AM CST 5:52 PM CST
Nautical Twilight 6:10 AM CST 6:21 PM CST
Astronomical Twilight 5:42 AM CST 6:50 PM CST
Moon 1:04 PM CST (12/10) 12:52 AM CST (12/10)
Length of Visible Light 11h 12m
Length of Day
10h 20m
Waxing Gibbous, 62% of the Moon is Illuminated
Dec 10
Waxing Gibbous
Dec 17
Full
Dec 25
Last Quarter
Jan 1
New
Jan 7
First Quarter

Hourly Weather History & Observations

Time (CST) Temp. Windchill Dew Point Humidity Pressure Visibility Wind Dir Wind Speed Gust Speed Precip Events Conditions
12:15 AM 42.1 °F 33.9 °F 40.6 °F 95% 30.28 in 7.0 mi North 17.3 mph 24.2 mph N/A   Overcast
12:35 AM 41.9 °F 33.4 °F 40.1 °F 93% 30.28 in 10.0 mi North 18.4 mph 25.3 mph N/A   Overcast
12:55 AM 41.9 °F 34.6 °F 40.1 °F 93% 30.29 in 10.0 mi NNW 13.8 mph 19.6 mph N/A   Overcast
1:15 AM 41.5 °F 32.4 °F 39.6 °F 93% 30.30 in 10.0 mi NNW 20.7 mph 25.3 mph N/A   Overcast
1:35 AM 41.2 °F 33.4 °F 38.7 °F 91% 30.31 in 10.0 mi North 15.0 mph 24.2 mph N/A   Overcast
1:55 AM 41.0 °F 33.1 °F 38.5 °F 91% 30.30 in 10.0 mi North 15.0 mph 19.6 mph N/A   Overcast
2:15 AM 40.8 °F 32.0 °F 37.8 °F 89% 30.30 in 10.0 mi North 18.4 mph 29.9 mph N/A   Overcast
2:35 AM 40.1 °F 32.7 °F 36.7 °F 88% 30.31 in 10.0 mi North 12.7 mph 21.9 mph N/A   Scattered Clouds
2:55 AM 39.2 °F 30.5 °F 36.3 °F 89% 30.33 in 10.0 mi NNW 16.1 mph 23.0 mph N/A   Clear
3:15 AM 38.5 °F 28.6 °F 34.7 °F 86% 30.33 in 10.0 mi NNW 19.6 mph 25.3 mph N/A   Clear
3:35 AM 37.6 °F 28.4 °F 34.0 °F 87% 30.34 in 10.0 mi North 16.1 mph - N/A   Clear
4:35 AM 36.5 °F 26.7 °F 33.6 °F 89% 30.35 in 7.0 mi NNW 17.3 mph 24.2 mph N/A   Scattered Clouds
4:55 AM 36.0 °F 25.0 °F 33.1 °F 89% 30.35 in 7.0 mi North 20.7 mph - N/A   Clear
5:15 AM 35.6 °F 25.5 °F 32.5 °F 89% 30.37 in 7.0 mi NNW 17.3 mph 21.9 mph N/A   Clear
5:35 AM 35.8 °F 26.1 °F 32.0 °F 86% 30.37 in 10.0 mi North 16.1 mph 27.6 mph N/A   Clear
5:55 AM 35.6 °F 26.6 °F 31.8 °F 86% 30.38 in 10.0 mi North 13.8 mph 19.6 mph N/A   Clear
6:15 AM 35.4 °F 26.0 °F 31.6 °F 86% 30.39 in 10.0 mi NNW 15.0 mph 19.6 mph N/A   Clear
6:35 AM 35.1 °F 26.9 °F 31.3 °F 86% 30.40 in 10.0 mi North 11.5 mph 20.7 mph N/A   Clear
6:55 AM 34.7 °F 26.4 °F 31.1 °F 87% 30.41 in 10.0 mi North 11.5 mph - N/A   Clear
7:15 AM 34.5 °F 26.7 °F 31.1 °F 87% 30.42 in 10.0 mi North 10.4 mph - N/A   Clear
7:35 AM 34.5 °F 25.7 °F 31.1 °F 87% 30.42 in 7.0 mi North 12.7 mph 17.3 mph N/A   Clear
7:55 AM 34.9 °F 25.7 °F 31.1 °F 86% 30.42 in 10.0 mi North 13.8 mph 18.4 mph N/A   Clear
8:15 AM 35.4 °F 25.6 °F 31.3 °F 85% 30.42 in 7.0 mi North 16.1 mph 21.9 mph N/A   Clear
8:35 AM 36.1 °F 28.2 °F 31.5 °F 83% 30.43 in 10.0 mi North 11.5 mph 19.6 mph N/A   Clear
8:55 AM 37.0 °F 28.9 °F 31.8 °F 81% 30.44 in 10.0 mi North 12.7 mph 20.7 mph N/A   Clear
9:15 AM 37.8 °F 28.3 °F 32.0 °F 80% 30.45 in 10.0 mi North 17.3 mph 20.7 mph N/A   Clear
9:35 AM 38.8 °F 30.8 °F 32.2 °F 77% 30.45 in 10.0 mi North 13.8 mph - N/A   Clear
9:55 AM 39.9 °F 32.1 °F 32.5 °F 75% 30.45 in 10.0 mi North 13.8 mph - N/A   Clear
10:15 AM 41.2 °F 34.1 °F 32.7 °F 72% 30.45 in 10.0 mi North 12.7 mph - N/A   Clear
10:35 AM 42.1 °F 34.9 °F 32.9 °F 70% 30.44 in 10.0 mi North 13.8 mph 20.7 mph N/A   Clear
10:55 AM 43.0 °F 36.0 °F 32.9 °F 68% 30.43 in 10.0 mi North 13.8 mph 19.6 mph N/A   Clear
11:15 AM 43.7 °F 36.6 °F 33.1 °F 66% 30.42 in 10.0 mi NNW 15.0 mph 18.4 mph N/A   Clear
11:35 AM 45.0 °F 37.6 °F 33.6 °F 64% 30.41 in 10.0 mi North 17.3 mph - N/A   Clear
11:55 AM 45.9 °F 39.1 °F 33.4 °F 62% 30.40 in 10.0 mi North 16.1 mph - N/A   Clear
12:15 PM 46.6 °F - 33.1 °F 59% 30.40 in 10.0 mi North 15.0 mph 20.7 mph N/A   Clear
12:35 PM 47.1 °F - 32.9 °F 58% 30.39 in 10.0 mi North 15.0 mph 20.7 mph N/A   Clear
12:55 PM 47.8 °F - 32.9 °F 56% 30.38 in 10.0 mi NNW 13.8 mph 23.0 mph N/A   Clear
1:15 PM 48.2 °F - 33.3 °F 56% 30.36 in 10.0 mi North 15.0 mph 20.7 mph N/A   Clear
1:35 PM 48.7 °F - 32.7 °F 54% 30.35 in 10.0 mi NNW 12.7 mph 20.7 mph N/A   Clear
1:55 PM 49.1 °F - 32.4 °F 53% 30.34 in 10.0 mi North 15.0 mph 24.2 mph N/A   Clear
2:15 PM 49.6 °F - 32.2 °F 51% 30.33 in 10.0 mi North 12.7 mph 19.6 mph N/A   Clear
2:35 PM 50.0 °F - 31.8 °F 50% 30.33 in 10.0 mi North 16.1 mph - N/A   Clear
2:55 PM 50.5 °F - 31.8 °F 49% 30.34 in 10.0 mi North 13.8 mph 19.6 mph N/A   Clear
3:15 PM 50.5 °F - 31.6 °F 48% 30.34 in 10.0 mi NNW 8.1 mph 16.1 mph N/A   Clear
3:35 PM 50.4 °F - 31.6 °F 49% 30.35 in 10.0 mi North 8.1 mph - N/A   Clear
3:55 PM 50.2 °F - 31.5 °F 49% 30.34 in 10.0 mi North 4.6 mph - N/A   Clear
4:15 PM 49.5 °F - 31.6 °F 50% 30.35 in 10.0 mi North 4.6 mph - N/A   Clear
4:35 PM 47.7 °F - 32.0 °F 55% 30.35 in 10.0 mi Calm Calm - N/A   Scattered Clouds
4:55 PM 47.7 °F - 32.2 °F 55% 30.35 in 10.0 mi NNW 5.8 mph - N/A   Overcast
5:15 PM 47.5 °F - 32.4 °F 56% 30.35 in 10.0 mi NNW 5.8 mph - N/A   Overcast
5:35 PM 46.9 °F - 32.4 °F 57% 30.35 in 10.0 mi NNW 5.8 mph - N/A   Overcast
5:55 PM 46.6 °F - 32.5 °F 58% 30.35 in 10.0 mi NNW 4.6 mph - N/A   Overcast
6:15 PM 46.4 °F 45.2 °F 32.5 °F 59% 30.35 in 10.0 mi NNW 3.5 mph - N/A   Overcast
6:35 PM 46.2 °F 44.1 °F 32.5 °F 59% 30.36 in 10.0 mi NNW 4.6 mph - N/A   Overcast
6:55 PM 45.9 °F 44.6 °F 32.4 °F 59% 30.36 in 10.0 mi NNW 3.5 mph - N/A   Overcast
7:15 PM 45.7 °F 43.4 °F 32.4 °F 60% 30.36 in 10.0 mi NNW 4.6 mph - N/A   Overcast
7:35 PM 45.5 °F 44.2 °F 32.4 °F 60% 30.36 in 10.0 mi NNW 3.5 mph - N/A   Overcast
7:55 PM 45.5 °F 42.5 °F 32.4 °F 60% 30.36 in 10.0 mi NNW 5.8 mph - N/A   Overcast
8:15 PM 45.5 °F 41.8 °F 32.2 °F 60% 30.37 in 10.0 mi NNW 6.9 mph - N/A   Overcast
8:35 PM 45.5 °F 42.5 °F 32.4 °F 60% 30.37 in 10.0 mi NNW 5.8 mph - N/A   Overcast
8:55 PM 45.5 °F 43.2 °F 32.5 °F 61% 30.37 in 10.0 mi NNW 4.6 mph - N/A   Overcast
9:15 PM 45.3 °F 42.3 °F 32.5 °F 61% 30.36 in 10.0 mi North 5.8 mph - N/A   Overcast
9:35 PM 45.1 °F 42.0 °F 32.2 °F 60% 30.37 in 10.0 mi NNW 5.8 mph - N/A   Overcast
9:55 PM 45.0 °F 43.5 °F 32.4 °F 61% 30.37 in 10.0 mi North 3.5 mph - N/A   Overcast
10:15 PM 45.0 °F - 32.7 °F 62% 30.37 in 10.0 mi Calm Calm - N/A   Overcast
10:35 PM 44.8 °F 42.4 °F 32.9 °F 63% 30.37 in 10.0 mi NNW 4.6 mph - N/A   Overcast
10:55 PM 44.6 °F 43.1 °F 33.1 °F 64% 30.38 in 10.0 mi NW 3.5 mph - N/A   Overcast
11:15 PM 43.7 °F 42.1 °F 33.3 °F 67% 30.39 in 10.0 mi NW 3.5 mph - N/A   Mostly Cloudy
11:35 PM 43.3 °F 41.7 °F 34.3 °F 71% 30.39 in 10.0 mi NW 3.5 mph - N/A   Overcast
11:55 PM 43.3 °F 41.7 °F 34.9 °F 72% 30.38 in 10.0 mi NW 3.5 mph - N/A   Overcast